World > North America > United States > Georgia

Uvalda, Georgia Regional Weather

Lat: 32.04N, Lon: 82.51W
Wx Zone: GAZ112
Feedback

Uvalda, GA Regional Weather

Expires:201907212200;;423407
ASUS42 KFFC 212110
RWRGA 
WEATHER ROUNDUP FOR GEORGIA
NATIONAL WEATHER SERVICE PEACHTREE CITY GA
500 PM EDT SUN JUL 21 2019

NOTE: "FAIR" INDICATES FEW OR NO CLOUDS BELOW 12,000 FEET WITH NO
SIGNIFICANT WEATHER AND/OR OBSTRUCTIONS TO VISIBILITY. 

* = USE WITH CAUTION. THE STATIONS MARKED WITH AN ASTERISK MAY NOT
REPORT WEATHER SUCH AS PRECIPITATION, FOG, OR THUNDER AND ARE NOT 
QUALITY CONTROLLED BY NWS.

THE REMARK "TC" DENOTES TEMPERATURE READING IN DEGREES CELSIUS.


GAZ099>101-110>166-212200-
SOUTH GEORGIA
  
CITY           SKY/WX    TMP DP  RH WIND       PRES   REMARKS
SAVANNAH       PTSUNNY   95  72  47 SW7       30.00F HX 103           
VALDOSTA       FAIR      90  75  61 VRB6      30.02S HX 100           
ALMA           FAIR      94  70  45 W5        30.00F HX 100           
ST SIMONS      FAIR      90  76  63 SE16      30.01F HX 101           
FT STEWART     FAIR      96  69  40 W6        29.97F HX 101           
ALBANY         PTSUNNY   91  71  51 W5        30.03F HX  97           
HUNTER AFB     FAIR      92  76  58 S13       29.97F HX 105           
MOODY AFB      PTSUNNY   90  75  62 SW5       30.03  HX 100           
BRUNSWICK      FAIR      92  76  59 S12       30.00F HX 104           

  
CITY           SKY/WX    TMP DP  RH WIND       PRES   REMARKS
MOULTRIE*      FAIR      90  70  51 CALM      30.02F HX  95           
VIDALIA*       FAIR      95  61  31 SW9G16    30.01F HX  95           
WAYCROSS*      FAIR      92  60  34 CALM      30.01F HX  91           
DOUGLAS*       FAIR      92  70  48 W3        30.02F HX  98           
$$
  

SKY/WX - Weather  TMP - Temperature  DP - Dew Point  RH - Relative Humidity
WIND - Wind Direction/Speed PRES - Barometric Pressure VSB - Visibility
WCI - Wind Chill Index E13G22 Wind - East Wind 13 mph/Gusts of 22 mph